User: anonymous   Login
Location: Newark
(41.6478°N, 9.0078°E)
Time: 23:47:05
(UTC+00:00)
Language:

RS-15 - Orbit

View from above orbital plane
View from above orbital plane
View from above satellite
View from above satellite

Ground track
Ground track

The orbit data is extracted from the following two-line orbital elements,

1 23439U 94085A   20023.58133555 -.00000054 +00000-0 -33120-3 0  9992
2 23439 064.8164 122.1507 0146145 070.3145 291.3480 11.27568962032572
Epoch (UTC): 23 January 2020 13:57:07
Eccentricity: 0.0146145
inclination: 64.8164°
perigee height: 1899 km
apogee height: 2145 km
right ascension of ascending node: 122.1507°
argument of perigee: 70.3145°
revolutions per day: 11.27568962
mean anomaly at epoch: 291.3480°
orbit number at epoch: 3257

The dashed part of the orbit path shows where the satellite is in the earth's shadow,  

DLR